Wind_Speed
19 15 12 12 13 12 12 16 18 17 17 17 15 14 13 9 6 9 8 5 7 10 11 11 8 7 8 8 12 16 13 15 21 22 27 37 39 39 42 43 44 44 42 41 42 42 43 44 46 46 45 45 45 45 46 46 46 45 44 45 46 46 47 48 50 50 50 49 49 48 47 46 45 45 44 44 44 44 43 42 41 40 39 39 38 38 38
18 19 18 17 16 14 12 13 16 18 19 20 18 14 11 11 10 10 10 10 9 8 8 8 8 9 7 5 10 14 13 20 24 22 25 31 33 35 39 41 41 41 40 38 37 37 39 41 44 45 45 45 46 47 46 46 46 45 44 45 46 47 48 49 49 49 49 50 50 48 48 47 46 45 44 43 43 43 43 41 39 37 37 37 37 38 38
11 17 20 20 19 17 14 12 13 17 19 20 19 16 12 10 9 9 10 10 10 9 7 7 7 7 5 4 5 5 7 21 31 27 24 28 31 32 35 37 39 40 41 38 34 33 36 38 40 43 45 45 47 48 47 47 47 45 45 46 47 48 49 49 49 49 49 49 50 49 49 48 46 45 43 42 42 42 41 39 37 35 34 34 35 36 37
5 10 17 21 20 17 17 18 16 16 16 14 13 14 14 12 10 8 7 7 8 8 7 7 6 5 6 6 6 6 7 14 25 28 28 32 35 36 36 37 40 42 42 39 35 34 36 37 39 40 43 46 48 48 48 48 47 46 46 47 49 50 50 50 48 48 48 49 49 49 49 48 47 45 43 42 41 40 39 38 37 35 34 33 34 34 34
3 4 7 13 15 14 16 18 16 11 9 11 11 11 13 16 13 8 6 7 7 5 6 7 8 7 6 7 7 8 10 14 21 26 27 30 34 39 41 40 42 44 42 40 39 39 39 40 40 40 43 47 49 50 50 49 47 47 47 48 50 51 51 50 50 48 47 47 47 47 47 47 46 44 42 41 41 40 39 38 37 35 33 33 33 32 32
3 4 5 6 8 11 11 10 11 11 8 9 10 8 9 12 11 10 9 7 5 4 6 8 8 9 12 13 12 13 14 15 20 24 25 26 27 32 39 39 38 39 40 41 40 40 40 39 40 41 42 46 49 50 50 49 48 48 48 48 50 52 52 51 51 50 48 47 46 46 45 44 44 43 42 41 40 40 39 37 36 35 32 31 31 31 31
3 4 4 6 7 8 6 5 9 11 10 8 8 9 9 7 6 10 11 8 7 7 6 7 8 8 14 16 13 14 18 19 19 21 23 26 25 24 28 34 38 38 40 43 43 41 38 37 40 42 42 44 47 49 49 49 49 50 50 49 50 52 52 53 52 51 50 49 47 45 44 43 42 42 42 41 40 39 38 37 36 35 33 31 31 31 32
4 3 4 6 4 4 5 3 4 3 3 4 4 5 6 5 4 1 1 1 1 1 2 2 3 6 7 9 9 9 12 13 14 16 19 22 23 19 18 25 35 38 39 42 43 40 36 36 40 42 41 42 46 48 48 50 50 50 50 51 51 51 52 53 54 53 52 51 49 46 44 43 42 42 42 41 40 38 38 37 37 36 35 33 33 33 33
5 5 4 4 3 4 6 5 1 2 2 1 2 1 3 5 7 7 5 6 7 7 7 9 13 15 12 5 8 11 13 13 11 11 13 14 15 15 15 19 27 33 36 38 39 38 37 38 40 40 39 41 44 46 46 48 50 50 51 52 52 51 52 53 55 54 53 52 50 48 46 44 43 42 42 40 39 38 38 38 38 37 36 35 34 33 31
2 4 4 4 4 5 5 2 2 3 3 4 7 4 2 5 6 8 7 7 8 8 7 10 13 13 9 4 7 14 17 20 22 21 19 18 19 20 20 20 22 28 35 37 38 38 39 40 40 38 38 40 43 44 46 47 49 50 50 52 54 52 51 53 55 54 53 52 51 49 48 45 44 43 41 38 38 37 37 36 35 34 33 32 31 28 25
1 2 5 5 5 4 3 2 1 4 7 6 6 5 4 5 4 8 10 9 9 8 7 9 11 10 6 3 8 19 22 20 24 29 31 25 21 21 20 18 18 21 30 38 40 40 40 41 40 37 37 40 43 44 46 48 49 50 50 52 55 54 52 52 54 54 53 52 52 50 48 46 44 42 39 35 35 34 33 32 31 31 31 30 27 25 22
2 2 3 3 2 2 1 1 1 7 10 8 4 1 3 4 5 10 12 11 10 10 10 11 9 7 5 4 11 21 21 19 21 22 32 31 21 18 20 19 15 14 24 36 42 42 39 38 40 38 37 40 42 43 46 49 49 51 52 51 53 55 53 52 53 54 53 52 52 50 48 46 43 39 35 33 32 31 30 29 29 30 30 28 25 22 20
2 3 1 2 1 1 2 3 5 5 8 7 3 5 5 2 7 14 17 14 13 15 15 12 8 7 9 9 13 18 15 12 15 13 17 22 20 18 19 20 16 13 19 32 40 41 37 37 40 40 39 42 43 41 44 49 52 53 53 51 52 52 52 52 53 53 53 52 51 49 47 44 40 35 33 32 31 30 29 29 29 28 28 26 23 21 18
2 3 2 2 2 1 0 4 10 10 5 3 3 3 4 7 11 17 20 18 17 18 17 14 12 11 15 14 13 16 16 12 9 8 9 9 9 11 12 17 18 14 17 29 38 39 38 41 44 43 41 43 44 42 45 49 51 52 52 51 51 51 51 52 52 52 51 50 48 46 43 39 37 35 33 31 30 29 28 27 26 26 25 24 22 19 17
2 2 3 2 1 3 1 2 6 6 2 4 3 2 10 14 16 17 20 20 19 18 17 17 17 16 18 19 16 14 14 14 12 9 8 8 8 8 8 7 11 11 17 32 42 43 43 44 45 44 44 46 44 44 48 49 49 50 50 49 50 50 50 51 52 52 50 47 44 41 39 37 36 34 32 30 29 28 26 25 24 24 23 21 18 16 15
3 2 1 1 4 11 7 3 2 1 2 2 4 8 11 14 17 18 21 22 21 19 18 19 20 19 20 20 17 15 13 12 13 13 10 7 5 8 11 8 4 6 13 24 33 38 41 45 47 44 44 47 47 46 47 48 48 48 48 48 49 49 50 50 50 48 45 42 40 38 37 36 35 33 32 30 28 26 24 23 22 22 21 19 16 14 14
1 3 4 5 14 25 15 9 15 10 10 13 16 17 16 17 19 21 22 22 22 21 20 20 21 21 20 19 17 17 15 13 12 12 11 9 7 6 6 6 5 5 9 15 19 22 24 30 41 48 45 43 46 48 47 47 48 48 47 49 50 49 48 48 46 44 41 38 37 36 36 35 34 33 31 30 28 26 24 22 22 21 20 17 15 14 14
2 4 4 5 15 29 25 4 19 18 17 18 22 24 23 22 25 26 25 25 25 24 22 22 23 20 17 19 20 19 16 14 14 12 9 7 6 4 1 2 4 6 9 15 20 21 17 17 22 36 46 45 44 47 47 48 48 48 49 50 49 48 46 45 44 42 40 37 36 35 35 34 33 31 30 28 27 25 23 22 21 20 19 17 15 14 14
4 3 4 8 12 27 28 8 14 22 25 24 26 28 27 26 29 30 28 28 28 28 27 27 27 24 21 21 24 23 21 18 17 15 12 8 5 4 4 3 6 10 11 14 17 19 21 21 20 17 31 43 47 48 48 49 49 50 51 51 48 48 47 45 43 40 38 36 36 36 35 33 32 30 28 26 25 23 22 22 21 19 17 16 15 14 15
3 2 3 8 14 23 24 22 16 18 26 29 27 28 29 29 30 30 29 29 29 29 28 26 27 29 28 27 27 27 26 24 21 17 13 9 4 3 5 6 9 12 13 13 13 13 18 23 20 12 10 23 38 44 46 49 50 50 51 51 50 48 46 43 40 37 36 37 37 36 35 33 31 29 26 24 22 22 21 20 18 16 15 14 14 16 15
4 3 2 7 12 15 20 28 22 15 22 29 29 28 30 31 32 31 31 31 31 30 28 26 27 29 29 28 28 28 28 28 25 20 16 12 6 2 3 4 5 7 6 5 9 12 14 19 25 19 7 8 23 34 39 45 49 48 47 47 45 42 38 38 38 38 38 38 38 37 35 33 31 28 25 23 22 20 18 15 12 12 13 14 15 15 14
2 1 3 5 4 6 10 18 20 16 18 26 30 30 30 30 30 31 32 32 31 31 29 28 29 30 29 28 29 30 29 29 27 24 21 19 15 11 8 7 7 5 1 4 8 13 15 15 22 25 14 12 22 33 36 40 44 44 39 36 36 36 36 38 38 39 39 38 36 36 34 32 30 27 24 21 18 16 15 14 15 14 14 15 15 13 12
5 7 9 6 1 2 8 15 17 15 16 23 28 29 30 29 28 29 31 32 31 31 30 29 29 29 29 29 30 32 31 29 28 27 25 23 22 21 17 13 11 10 4 3 7 11 15 15 18 23 19 18 23 32 33 32 32 29 25 27 33 37 38 39 39 39 39 37 35 33 30 28 27 25 23 20 18 16 17 19 20 19 18 17 14 11 11
9 13 13 6 2 4 7 13 17 16 16 22 25 25 27 29 28 28 29 30 29 29 29 29 28 27 27 27 29 31 31 30 29 29 28 24 20 22 24 20 17 16 11 1 6 10 14 14 15 18 19 16 18 23 23 21 20 20 22 28 36 38 38 39 39 39 37 34 31 29 26 24 23 22 22 22 22 22 21 21 20 20 18 17 16 13 11
12 16 11 7 9 9 9 12 16 16 16 19 22 22 24 25 24 24 26 27 26 26 26 27 27 26 26 25 25 26 27 28 28 29 30 28 23 22 24 22 21 21 18 8 6 11 14 14 14 16 17 16 17 20 21 23 27 29 31 35 39 38 37 37 35 32 30 28 26 24 23 22 21 20 19 21 24 26 25 23 21 19 17 16 17 17 15
13 11 9 15 13 10 9 11 15 16 14 17 20 20 20 22 22 21 22 22 21 21 21 22 23 24 24 24 24 23 23 23 23 25 28 28 27 26 26 24 22 21 20 14 13 16 16 15 16 18 19 19 22 25 28 32 35 36 35 36 36 33 31 30 28 26 24 23 21 21 21 21 20 19 19 20 23 27 28 26 24 21 17 17 18 18 16
9 5 11 13 10 7 8 10 13 14 13 14 17 18 18 21 22 22 22 21 18 17 17 17 18 19 20 21 21 21 22 22 23 25 26 27 26 24 23 23 22 20 20 19 18 20 20 19 19 20 22 24 26 28 29 30 30 30 29 27 26 25 24 24 23 21 20 19 19 19 20 21 21 20 19 19 21 24 26 27 26 24 21 19 19 18 17
2 2 5 9 10 11 12 12 13 14 12 11 14 17 18 19 22 23 22 21 20 18 16 16 16 17 19 19 18 18 20 21 23 24 25 25 24 21 17 18 22 21 21 21 21 21 22 22 22 22 22 24 25 25 24 24 24 24 21 19 19 22 23 22 21 19 18 18 16 15 17 20 21 19 18 18 19 20 22 24 25 24 23 20 19 19 19
8 8 10 15 19 20 18 15 14 14 13 12 14 17 18 19 21 21 20 20 20 20 19 18 16 16 18 18 18 18 18 18 19 21 21 20 20 19 17 16 18 20 21 22 22 21 21 21 23 22 20 20 23 24 21 19 20 20 18 17 21 25 24 21 20 18 17 16 14 13 15 19 20 18 16 17 17 17 19 21 22 23 23 20 19 20 20
14 14 15 17 19 19 19 16 14 14 15 15 16 17 17 18 20 20 19 18 19 20 21 20 19 18 17 17 18 17 16 16 16 16 17 16 15 15 16 16 17 20 21 21 19 18 17 18 20 20 17 18 21 21 18 16 18 20 18 18 21 24 24 22 20 19 17 16 14 13 16 20 19 16 14 14 16 17 19 19 20 21 21 20 19 20 19
17 19 19 20 18 17 17 15 14 14 14 14 15 16 16 17 18 19 18 18 18 19 19 20 21 21 20 19 18 16 13 13 12 11 12 13 12 11 12 14 16 18 19 17 16 15 15 15 17 17 16 17 18 18 17 18 19 20 19 19 20 23 24 23 20 19 18 16 13 13 17 20 19 16 13 13 14 17 18 19 19 19 20 20 19 19 18
14 19 23 23 21 19 18 16 14 14 13 12 13 13 14 16 18 18 18 18 18 18 18 18 20 20 19 18 18 16 14 12 10 9 10 11 11 12 13 14 14 14 14 14 14 14 13 13 14 14 13 14 14 14 15 17 18 17 17 18 20 23 23 21 19 18 17 15 13 15 19 22 20 17 15 15 15 16 17 18 18 16 17 19 19 18 17
12 14 17 20 21 21 20 17 15 13 12 12 12 12 12 14 16 16 16 17 17 17 16 17 17 16 15 15 15 15 14 13 12 11 10 7 6 9 12 15 14 12 12 13 14 13 12 12 13 11 10 10 11 10 10 13 14 13 12 14 18 20 20 18 16 14 14 13 13 16 20 21 18 18 18 18 17 14 13 15 16 14 14 15 16 15 14
14 14 14 16 18 19 17 15 15 16 17 16 16 15 14 14 14 13 14 15 16 15 15 15 15 15 15 15 14 13 14 13 14 14 13 11 9 8 9 12 13 11 9 10 12 12 11 10 9 7 6 7 9 8 7 7 10 10 10 12 14 13 12 13 13 12 13 14 14 16 18 17 16 18 20 19 19 17 15 15 16 15 13 12 12 13 13
15 15 16 16 16 15 15 14 15 16 18 18 17 16 15 14 14 14 13 13 14 14 14 13 13 14 16 15 13 13 14 15 15 15 16 16 14 11 9 10 12 11 8 6 8 10 9 9 7 5 3 2 5 7 6 6 8 9 10 11 12 11 12 15 16 16 16 17 18 18 18 17 18 20 20 19 20 20 18 18 18 16 14 12 13 14 14
15 16 16 16 15 14 15 17 16 16 16 16 16 16 16 15 15 15 14 13 12 13 14 13 12 13 15 15 13 12 12 13 13 12 11 11 10 9 8 8 10 10 8 6 7 8 7 6 5 4 1 2 2 3 5 7 8 9 10 12 15 17 18 18 17 17 17 17 18 19 19 18 19 21 20 18 19 19 19 19 19 17 14 12 13 14 13
16 17 16 16 16 16 17 18 18 17 17 17 18 17 17 17 17 16 15 15 14 14 14 15 15 14 14 14 14 13 12 10 9 8 7 7 7 8 9 9 8 7 7 6 6 5 4 3 4 3 1 3 3 3 4 7 10 10 9 10 15 18 18 17 16 16 17 18 19 19 18 19 21 22 21 19 17 17 17 17 16 14 13 12 12 12 11
17 18 18 18 18 18 18 18 17 17 17 18 18 18 17 17 17 16 16 15 15 14 13 13 13 13 13 12 12 12 12 10 9 7 6 5 6 8 10 10 10 10 9 9 8 5 2 2 3 3 2 2 2 3 7 11 13 12 11 11 13 15 17 18 17 16 17 20 21 20 20 22 22 22 21 20 17 16 17 16 15 14 13 12 12 11 10
17 18 18 18 19 19 19 19 19 19 18 18 18 18 18 19 18 18 17 15 14 14 14 14 14 15 16 16 15 13 11 10 10 10 10 9 8 9 11 12 12 11 10 9 9 8 7 7 5 4 3 3 2 4 8 13 16 18 18 17 17 16 17 18 17 16 18 21 23 22 21 21 21 21 21 18 16 15 16 14 12 12 11 10 11 11 10
19 19 19 19 20 21 21 21 21 21 20 19 19 19 19 20 21 20 20 19 17 16 17 18 18 19 19 20 19 16 13 10 9 10 11 12 12 12 12 12 10 9 7 7 9 10 10 10 9 7 6 6 6 5 5 7 10 12 14 14 14 14 14 13 14 16 18 21 22 21 20 19 20 20 19 16 14 14 14 12 11 11 11 11 11 11 11
20 20 20 21 21 21 21 21 22 22 21 21 21 19 19 19 20 21 20 20 19 18 18 18 19 19 20 20 20 20 19 17 14 12 12 14 15 16 16 14 12 10 9 8 8 8 8 8 9 9 9 9 9 7 5 4 5 6 8 9 12 14 15 14 15 17 19 18 18 17 17 17 18 17 15 15 15 14 13 12 12 11 10 11 12 12 13
19 20 21 21 21 21 21 21 21 21 21 21 21 20 20 19 19 19 19 19 18 18 18 18 18 19 19 19 19 20 21 21 20 19 18 17 17 18 17 15 12 11 10 9 7 7 6 6 6 8 8 9 9 8 6 5 3 2 5 8 10 13 16 16 16 17 19 18 16 14 13 15 15 13 12 14 16 14 12 11 10 9 8 10 11 11 12
18 18 19 18 18 19 20 21 20 20 20 20 19 19 20 20 20 19 19 19 18 18 18 19 20 20 20 19 19 19 18 18 18 17 17 16 15 15 14 12 11 11 11 11 9 8 7 5 5 7 8 8 8 7 6 7 5 3 2 4 6 6 9 10 8 9 12 15 16 14 14 15 16 14 12 14 14 12 10 9 9 9 9 10 9 10 12
17 18 18 18 18 18 18 19 20 19 18 18 17 17 18 18 18 19 19 19 18 18 18 19 20 21 20 19 18 18 18 17 16 15 16 17 18 17 14 11 9 10 12 12 11 9 8 7 6 8 10 10 10 9 8 7 5 3 3 6 8 6 5 6 7 8 10 12 14 14 15 15 15 13 13 14 14 12 11 11 13 14 13 11 12 14 15
16 16 16 17 17 17 16 17 19 19 17 16 15 15 16 16 16 16 17 18 19 19 19 19 20 20 19 18 18 18 19 18 16 15 16 18 20 20 18 14 10 9 10 12 12 10 7 7 6 7 8 9 11 11 11 9 6 4 4 4 5 2 0 2 6 7 8 9 11 13 14 13 11 11 13 13 14 14 15 17 17 16 14 13 13 14 14
17 17 16 16 17 18 18 18 18 18 17 17 17 18 17 17 16 17 16 15 16 18 19 19 19 19 18 17 17 18 19 20 19 18 17 16 17 18 19 18 16 13 13 14 15 13 10 8 5 3 3 3 6 9 10 8 6 5 5 5 4 1 2 1 3 3 4 6 8 10 12 11 10 11 11 11 11 14 17 17 16 14 13 12 12 12 11
19 19 19 17 18 19 20 20 19 19 18 18 19 20 19 18 18 20 19 16 15 16 18 18 18 19 18 17 16 16 17 17 18 18 18 17 16 17 18 18 18 17 16 14 14 15 14 13 10 5 1 1 3 6 8 7 5 3 2 2 4 4 3 3 4 4 4 4 6 6 7 8 10 12 12 11 11 12 13 11 10 9 9 9 9 9 10
20 20 19 17 18 19 19 19 20 21 20 19 19 19 19 17 17 19 21 21 19 17 17 17 17 17 18 17 16 16 16 16 17 17 16 14 14 16 17 18 17 17 15 13 12 13 13 13 13 11 6 2 1 2 3 5 5 5 4 2 1 3 4 4 5 4 4 5 7 7 7 8 9 9 9 7 7 7 7 6 6 5 6 7 8 7 7
19 19 20 20 20 21 21 21 21 21 20 19 19 19 18 17 16 17 18 19 18 17 18 18 17 17 16 15 14 13 13 14 15 15 14 12 12 13 15 17 17 16 13 13 14 14 13 13 14 14 11 8 5 4 4 2 1 4 4 3 0 0 1 2 3 2 1 3 6 7 5 4 4 5 5 4 4 4 4 6 6 6 6 6 5 3 3
18 19 20 20 19 19 21 22 21 21 20 18 17 17 18 17 16 16 16 15 14 13 14 14 15 16 16 15 14 12 11 10 11 12 12 12 13 12 13 14 16 15 14 15 17 18 16 15 14 12 10 10 9 8 8 6 4 2 1 3 3 1 1 2 4 4 3 3 5 5 4 3 4 4 5 6 7 7 7 8 9 8 8 8 7 5 4
18 18 19 18 17 16 17 18 19 20 19 17 16 16 17 16 15 15 16 17 15 12 11 11 13 15 14 11 10 11 10 9 9 11 11 11 12 11 11 12 13 13 12 13 15 17 17 17 16 13 9 8 7 7 8 7 5 4 4 2 1 1 0 2 5 6 6 6 6 5 5 5 5 6 6 5 5 6 8 9 10 10 10 11 11 10 10
17 18 18 18 17 16 16 15 16 17 17 17 18 18 17 14 12 13 15 17 15 13 12 12 12 12 12 11 9 8 7 7 7 8 9 11 12 13 12 11 11 11 11 11 11 12 13 15 17 16 13 10 7 6 6 6 5 5 6 6 4 3 2 3 4 5 6 7 8 8 8 8 9 10 9 7 6 7 8 9 10 11 12 12 12 13 13
Wind_Direction
213 221 236 239 240 245 221 191 193 202 208 217 219 218 220 209 206 241 239 201 211 238 246 245 238 222 220 208 184 185 177 151 158 172 175 176 179 181 182 184 186 190 194 197 198 200 202 203 201 201 202 202 201 201 202 203 205 208 210 210 211 212 214 216 216 217 218 217 217 220 222 224 225 226 226 227 228 229 231 234 236 237 237 239 241 243 245
208 215 231 242 243 249 241 208 194 196 204 215 223 230 226 213 219 234 228 219 224 232 242 244 221 206 216 198 174 182 166 141 147 159 164 168 175 178 181 185 188 192 196 198 200 203 205 205 204 203 204 204 203 203 203 203 205 206 208 209 210 211 213 216 217 217 217 216 216 218 222 224 226 226 227 227 227 228 231 234 236 236 235 237 240 243 244
203 206 217 233 244 251 257 244 212 200 204 208 212 224 233 231 232 231 224 230 237 232 232 244 229 198 177 132 140 181 167 146 149 156 163 168 174 180 184 187 190 195 199 200 203 207 210 212 211 209 208 206 205 204 203 204 205 205 207 209 210 211 213 216 218 217 216 215 216 218 221 224 225 226 226 227 227 227 229 232 235 235 235 236 240 242 243
217 213 209 216 231 248 260 258 239 214 205 206 207 209 214 223 233 233 224 226 240 240 228 238 250 216 177 156 152 178 198 171 161 160 163 169 175 180 187 191 195 198 200 201 207 212 215 216 216 215 212 208 205 204 204 205 205 204 206 209 210 211 213 215 217 218 217 216 217 219 221 222 224 225 225 225 225 226 227 229 232 234 235 236 238 240 243
221 245 228 216 216 230 244 247 247 237 212 208 215 207 202 209 215 229 236 220 222 219 192 214 251 246 206 189 185 192 202 199 192 181 172 173 179 181 185 193 199 200 201 203 209 214 217 218 218 217 214 209 207 207 207 206 204 203 205 209 211 211 212 214 216 219 219 218 218 219 221 221 222 223 224 223 224 224 225 227 229 232 234 235 236 237 240
182 213 257 257 226 224 232 229 233 248 244 226 228 228 216 208 206 216 221 212 218 210 180 196 226 244 240 232 227 234 235 220 209 204 200 201 200 193 191 197 203 202 202 205 208 213 217 219 218 215 212 212 211 209 207 205 203 203 205 209 211 211 212 214 216 218 220 219 219 220 220 221 220 221 222 222 222 223 223 224 226 229 231 232 233 235 239
140 168 213 246 240 239 246 204 205 231 246 247 253 260 254 246 236 227 216 207 225 237 231 218 212 231 250 250 239 232 234 230 216 209 213 219 222 215 204 204 208 209 206 207 208 211 215 217 216 212 211 213 212 209 205 203 203 203 204 208 212 212 212 214 215 216 218 219 219 218 218 218 218 219 220 220 220 220 221 223 225 227 229 229 231 235 241
146 145 195 223 246 305 296 227 183 209 257 262 277 281 283 319 1 289 216 16 311 311 56 56 19 354 308 270 251 223 219 228 218 204 207 214 220 226 222 212 209 209 210 210 209 209 210 213 214 211 210 212 210 207 205 203 203 203 203 207 212 213 213 214 215 215 216 216 216 215 215 215 215 216 216 216 217 219 220 222 224 227 228 230 232 237 241
168 172 212 251 293 307 275 251 151 52 17 68 116 206 300 8 52 71 63 35 29 38 46 46 34 20 9 335 278 256 240 237 232 219 219 225 233 248 256 239 219 210 214 218 215 212 210 209 210 209 209 210 207 206 205 204 203 204 204 206 211 214 214 214 214 214 213 212 211 211 212 212 212 213 213 213 215 218 221 222 225 227 230 232 236 240 240
164 166 200 250 256 239 234 258 12 23 36 81 109 114 353 5 50 71 77 62 49 43 25 26 38 36 24 357 306 298 279 260 258 259 257 261 266 269 274 269 243 220 216 219 218 215 210 207 207 207 207 207 205 204 205 204 203 204 205 207 211 214 215 214 213 212 211 210 208 208 209 211 211 211 210 211 214 218 222 225 228 231 233 235 237 239 237
48 168 198 217 236 226 181 169 135 60 58 61 79 71 352 327 18 58 75 71 53 49 36 30 45 48 30 293 316 340 333 306 287 273 262 262 260 253 254 263 258 234 219 214 214 213 210 206 205 205 205 205 204 203 204 205 204 204 205 207 210 214 216 214 211 210 208 208 207 206 207 209 210 210 209 211 215 217 220 224 228 232 234 234 234 233 233
103 120 215 224 229 246 244 229 150 102 91 76 69 101 265 291 7 52 68 70 57 50 46 47 58 51 23 321 331 351 351 342 335 299 266 259 251 235 232 238 250 248 225 215 212 211 212 212 210 207 204 202 202 203 204 204 204 204 205 208 210 212 213 211 207 206 206 206 205 204 206 207 207 207 209 211 213 214 217 221 225 226 227 229 231 232 235
68 87 261 242 162 249 300 347 2 55 92 91 119 199 218 301 30 55 63 63 56 54 53 56 67 51 25 0 349 2 8 1 360 336 279 260 244 232 230 230 239 250 233 220 215 216 224 229 219 208 202 200 201 203 203 203 205 206 206 206 208 209 208 206 203 203 203 202 201 201 202 203 203 203 207 209 211 215 217 216 214 215 218 223 227 229 233
353 60 14 336 350 306 87 41 14 14 60 120 193 183 110 62 54 59 62 61 57 58 58 58 63 54 36 22 10 19 34 39 23 359 342 323 275 254 248 242 247 257 246 233 225 223 229 231 219 206 199 199 202 203 201 202 204 205 205 204 205 205 203 200 198 198 198 197 195 196 198 199 199 200 203 208 212 212 209 205 205 210 216 219 222 225 229
318 41 46 68 333 299 266 78 20 18 122 215 258 78 73 64 61 60 58 58 57 60 59 53 54 53 42 35 31 28 34 42 42 36 28 13 356 359 359 295 267 272 254 237 226 220 220 217 210 204 201 201 202 203 202 202 202 203 202 201 200 199 196 192 192 192 191 189 189 191 194 196 197 198 201 204 204 200 198 201 207 212 215 217 222 228 231
357 13 21 75 323 312 308 150 141 9 112 78 59 86 78 58 57 61 59 55 52 57 61 56 54 54 46 41 40 35 30 27 29 39 51 46 29 31 30 16 330 284 252 230 216 211 211 210 207 204 203 202 202 202 201 200 198 198 197 195 193 192 188 185 184 184 183 183 186 190 192 193 195 198 199 196 191 191 197 204 210 214 217 221 227 231 230
312 252 272 317 324 318 323 96 103 80 69 73 77 85 77 58 58 64 64 60 57 60 65 60 55 55 51 45 44 41 37 28 20 26 37 41 53 68 53 30 357 293 254 236 224 215 213 217 213 208 206 205 202 200 200 198 196 195 191 188 186 183 180 178 177 176 176 179 184 187 190 194 195 193 189 186 187 193 200 206 212 218 221 223 227 228 225
322 256 274 349 338 318 313 68 103 89 78 81 83 83 75 68 71 72 70 68 66 66 69 64 58 55 52 47 45 42 42 38 29 26 25 23 35 47 37 7 343 308 258 242 236 226 234 266 247 215 208 207 202 198 196 195 194 191 185 179 176 174 172 171 171 171 173 176 180 184 187 191 190 184 182 184 190 196 202 209 215 219 221 225 228 225 216
346 311 345 13 336 311 311 334 102 98 90 87 86 85 81 77 77 76 74 76 74 70 70 68 64 60 56 51 48 45 46 44 37 34 33 25 20 6 339 308 312 311 283 255 243 224 227 263 282 245 213 207 202 197 195 192 190 185 179 173 168 166 166 166 167 171 174 176 177 179 181 181 181 181 184 190 194 200 207 212 215 217 221 226 222 208 198
312 272 358 351 309 311 343 21 53 86 95 92 85 84 85 82 79 77 75 78 79 74 71 70 68 63 57 53 51 49 49 47 44 44 43 33 16 331 321 296 290 303 296 270 253 228 215 226 241 253 225 199 191 187 183 180 178 173 168 164 160 157 159 162 166 170 174 174 174 174 175 177 180 183 188 193 199 205 212 217 219 218 214 205 194 185 178
303 263 345 349 313 318 8 30 28 43 84 93 90 87 85 81 79 77 76 76 77 76 72 70 70 65 57 52 52 52 50 48 45 47 50 48 45 41 8 348 319 312 306 255 218 205 198 203 205 204 193 156 160 158 156 158 158 152 147 147 148 149 153 160 164 167 170 171 173 173 175 179 181 183 188 196 203 209 213 213 207 200 187 173 169 168 162
343 343 337 356 336 310 359 23 22 26 64 87 91 88 84 82 80 80 78 77 77 76 72 69 68 66 60 57 57 55 53 51 46 44 47 49 50 59 69 58 34 20 116 161 169 175 172 175 183 182 163 118 130 137 137 141 144 140 136 138 146 153 159 163 165 168 170 172 175 177 179 182 185 186 190 194 198 201 196 179 165 163 162 157 155 151 146
286 286 293 304 318 319 355 22 33 36 56 77 84 85 85 85 84 83 81 78 75 75 73 69 68 65 61 60 60 57 56 56 53 50 47 44 42 47 58 67 55 43 56 178 188 172 155 145 155 158 141 114 122 131 129 129 136 141 145 151 156 160 164 167 170 173 175 175 177 180 182 186 190 189 185 177 171 173 172 163 157 158 158 156 160 159 147
282 282 278 263 149 81 43 47 52 51 59 72 78 81 84 85 84 83 82 78 74 74 73 70 69 66 62 60 59 57 56 57 57 57 56 54 47 40 42 54 62 53 45 61 204 178 153 137 134 138 136 131 137 142 140 141 152 164 171 169 166 167 169 170 173 176 177 177 179 182 183 184 184 182 177 168 162 163 165 163 163 164 165 166 174 180 176
296 287 261 190 136 106 90 77 67 61 63 73 78 80 84 87 85 82 79 76 73 73 72 69 67 66 64 62 59 56 55 54 56 59 62 64 62 48 37 42 56 59 56 72 141 143 139 140 134 129 137 151 157 154 155 160 163 166 169 171 172 172 170 170 172 176 177 177 179 181 180 178 176 176 176 173 167 164 165 168 170 171 174 178 182 186 189
297 274 189 147 128 114 105 86 73 67 66 72 78 80 82 86 88 86 82 79 76 73 71 70 67 64 63 62 62 61 59 58 59 62 62 62 62 55 42 36 44 54 59 72 102 110 110 118 124 125 133 146 150 150 155 159 160 160 165 169 171 169 167 168 172 175 174 174 175 176 178 180 180 179 178 177 172 169 168 171 174 176 177 181 185 187 186
299 226 149 126 109 105 104 87 79 79 75 74 81 85 84 86 88 88 88 86 84 79 75 72 72 71 68 65 64 64 64 64 63 62 61 60 60 57 48 37 39 52 63 73 94 109 110 112 119 124 128 135 140 143 149 154 158 161 164 165 163 159 159 164 167 165 162 162 166 172 179 184 184 182 180 179 177 175 173 174 178 181 181 181 184 187 185
319 193 140 119 115 112 105 98 96 95 91 90 94 96 93 90 88 86 85 85 85 86 83 77 74 74 72 70 68 65 64 65 62 60 60 61 63 68 65 47 40 51 65 73 85 100 107 111 117 120 122 129 135 137 140 147 154 158 157 154 151 150 154 160 161 159 157 156 159 167 178 183 185 187 188 185 180 178 180 183 186 186 186 187 192 193 191
82 116 123 117 112 105 97 96 96 93 94 101 104 99 95 91 89 86 83 82 83 83 81 79 76 72 71 73 74 71 68 66 62 59 59 60 63 71 75 63 51 55 65 71 77 84 89 96 104 108 113 126 137 138 140 147 155 155 151 148 148 150 154 159 161 161 161 160 157 158 166 175 182 185 185 187 188 188 191 195 195 195 195 197 198 195 192
83 117 132 125 114 105 104 106 102 92 91 95 93 89 88 88 87 85 82 81 83 81 77 75 76 74 71 69 70 74 74 71 67 63 60 60 62 64 65 64 61 58 57 60 67 74 76 84 94 99 107 125 137 140 139 143 150 153 152 151 151 154 158 164 166 168 166 161 159 159 159 163 168 168 164 173 187 196 201 202 199 199 202 201 198 196 193
81 96 105 106 103 99 101 105 104 95 90 89 85 82 80 82 85 85 81 77 78 80 77 73 72 72 68 63 62 68 72 69 68 67 59 56 58 57 53 52 52 49 46 49 59 66 71 82 91 95 102 117 130 136 137 139 146 152 152 150 153 159 164 166 167 168 166 160 159 165 164 160 161 164 165 172 183 193 202 205 199 197 200 200 197 194 192
85 84 85 90 92 88 83 84 89 92 91 90 89 86 83 81 82 83 81 77 77 78 78 73 70 70 68 62 57 56 56 55 54 51 46 50 56 54 48 46 45 44 43 47 50 51 58 71 82 89 101 113 120 128 135 140 145 148 147 148 154 160 163 166 167 169 169 165 161 164 164 161 165 177 186 189 191 195 202 204 198 194 198 200 197 194 194
83 78 78 84 87 83 75 70 74 82 85 86 86 87 86 81 75 72 72 72 73 75 74 71 69 71 72 67 60 55 54 52 46 36 28 31 47 46 37 35 36 39 44 45 40 36 42 57 67 75 91 105 112 119 134 147 151 150 147 151 156 158 159 163 166 168 171 172 169 165 161 160 169 184 191 193 196 200 202 199 191 185 189 197 200 202 206
78 76 79 87 95 96 90 81 77 76 75 74 75 76 76 72 65 62 63 62 64 67 68 64 64 69 74 73 65 56 53 53 52 45 37 33 38 40 30 25 23 21 27 35 31 27 36 52 57 54 65 96 110 115 127 151 163 166 163 160 159 159 165 174 178 180 181 180 178 173 169 170 179 188 189 191 194 197 198 197 192 187 188 193 196 197 195
84 81 80 85 94 102 104 99 90 79 71 67 68 69 71 69 65 62 62 61 63 65 64 60 59 63 68 69 65 56 52 54 55 50 40 33 34 36 34 31 28 21 15 9 0 4 26 51 50 27 22 100 124 129 141 161 171 176 179 178 176 181 189 190 188 186 185 185 182 179 179 184 190 189 188 191 195 197 198 198 196 194 194 192 186 182 179
89 88 84 81 83 87 89 92 93 87 75 67 65 68 71 69 64 60 59 60 63 65 64 64 65 65 65 66 66 59 53 54 56 53 46 38 40 50 66 71 63 53 45 26 349 340 357 27 26 11 319 220 210 178 183 200 203 196 190 187 187 186 182 181 184 189 190 189 187 184 183 186 189 188 188 191 194 193 193 194 194 195 197 194 187 185 187
91 91 89 88 88 86 83 84 86 82 73 66 64 66 68 66 64 64 64 62 61 62 66 71 75 75 74 76 78 74 64 58 59 65 62 52 57 78 95 98 90 76 61 42 16 349 320 303 316 319 265 247 264 245 203 208 213 207 191 186 190 187 174 167 174 183 183 179 179 181 184 185 184 184 187 188 185 182 184 187 188 187 188 188 188 192 201
92 92 90 90 88 84 80 81 81 78 73 68 65 64 65 64 64 67 70 69 67 67 70 70 70 69 70 76 80 77 68 62 62 69 71 67 75 91 96 88 73 62 55 50 46 50 104 189 222 241 238 254 262 200 172 173 180 183 178 177 184 186 181 178 179 181 181 182 182 183 185 186 183 181 182 180 172 167 170 175 178 180 179 180 186 196 209
86 87 87 86 84 81 79 78 76 74 71 68 66 66 66 66 65 68 71 72 72 73 74 72 68 66 65 67 69 68 67 71 77 79 80 82 86 90 91 84 74 66 63 64 67 76 91 108 126 159 179 166 152 159 163 165 169 174 175 173 169 168 173 180 183 182 182 184 183 184 187 189 186 184 183 179 173 173 178 181 187 196 197 193 194 203 213
79 81 82 82 81 80 78 76 74 72 71 70 69 68 67 67 67 68 68 70 73 78 79 75 70 66 63 62 63 65 66 74 87 94 94 94 91 87 83 78 70 64 65 69 73 79 85 92 101 113 125 132 135 134 142 160 173 179 182 184 182 177 177 184 191 191 188 186 187 189 193 193 189 188 186 182 182 188 192 189 190 202 215 219 216 213 215
78 81 84 83 82 81 79 76 73 73 72 71 70 70 71 72 71 68 66 65 67 70 73 73 71 69 68 66 66 66 64 64 69 80 86 84 79 73 67 61 56 55 58 63 73 83 86 86 90 96 105 112 112 106 108 138 168 180 187 190 188 185 183 185 188 186 182 182 185 188 190 191 191 189 185 183 185 190 192 191 192 199 214 229 230 222 217
81 82 83 81 80 80 81 80 77 75 73 72 71 71 73 74 73 71 71 71 68 65 67 69 70 72 73 72 70 70 68 65 66 70 72 73 69 64 59 56 55 56 57 61 73 88 91 84 83 89 99 103 97 89 89 99 108 186 204 193 184 184 185 183 179 176 173 170 168 170 177 185 188 185 184 189 192 193 195 200 197 188 196 220 232 225 215
81 82 82 80 78 79 80 81 79 77 75 73 71 69 68 68 67 67 68 70 70 69 69 70 70 71 72 72 72 72 71 69 68 66 66 69 70 67 64 62 60 56 52 51 56 65 73 80 87 93 94 91 85 83 92 93 77 50 81 122 129 160 178 174 165 169 175 173 172 176 182 184 182 182 187 193 195 199 206 207 195 184 191 209 215 204 196
80 82 82 82 81 81 81 78 74 73 72 72 72 70 67 65 64 60 59 61 65 68 70 72 71 71 70 70 70 68 66 66 68 68 66 65 65 62 61 62 63 55 47 42 43 52 66 78 96 108 101 84 71 72 85 92 79 49 70 103 111 119 140 152 161 176 182 182 185 192 195 195 194 195 195 194 200 210 212 199 188 189 193 188 176 172 174
77 75 75 76 75 74 74 72 69 67 66 64 63 61 59 59 58 55 55 58 61 63 65 68 69 67 66 69 71 68 62 58 59 60 61 64 63 56 49 48 51 50 44 38 35 39 54 73 97 121 116 88 72 73 77 75 66 53 69 113 137 142 88 170 187 200 209 211 211 212 211 208 203 196 196 201 207 206 196 185 184 191 197 195 188 187 187
71 69 70 72 70 68 68 69 67 64 60 57 53 50 51 54 53 47 44 47 53 58 63 67 67 63 62 66 69 66 61 60 60 56 51 55 58 48 39 38 40 38 35 35 34 32 34 42 60 112 143 101 79 81 79 71 65 66 76 102 126 118 4 67 159 181 209 218 219 220 218 210 196 188 197 208 205 189 182 183 187 194 201 208 212 213 216
70 70 71 70 66 64 66 68 66 60 55 52 48 44 43 47 49 46 45 50 60 67 71 71 66 59 55 57 59 55 53 56 60 55 48 50 52 43 33 32 35 31 27 27 27 24 22 22 23 24 24 144 96 88 82 75 69 57 56 114 125 95 63 94 133 135 152 188 206 209 200 187 182 188 199 209 204 191 188 194 203 210 221 233 239 246 254
69 70 71 69 64 61 61 62 60 54 49 47 47 43 37 35 39 47 55 64 70 69 68 67 63 54 49 50 53 53 51 51 52 47 43 46 48 39 31 30 30 25 21 21 19 15 14 16 18 17 12 1 19 78 74 77 78 58 19 324 170 92 78 115 147 139 135 171 186 178 154 145 157 171 182 195 205 206 206 212 221 228 238 244 248 258 273
69 70 70 68 64 60 58 55 51 46 43 44 46 44 37 31 30 39 50 59 62 60 60 61 60 53 48 47 48 48 46 46 44 40 38 40 39 30 27 30 30 26 24 27 25 18 13 13 13 12 10 8 355 325 312 320 57 67 46 31 323 332 61 145 179 199 241 212 207 206 198 189 191 190 187 201 227 228 213 212 218 220 216 218 225 244 276
71 69 65 62 59 58 57 54 50 44 40 38 39 40 37 32 31 35 39 39 36 39 46 51 48 45 47 53 58 56 49 41 36 32 33 38 35 23 16 22 28 27 29 37 40 38 32 27 20 12 8 13 13 357 338 323 298 264 89 87 94 54 320 231 216 233 256 254 238 232 229 229 238 248 254 260 265 261 248 238 237 234 222 211 210 221 244
70 67 62 58 56 54 55 55 54 50 44 38 33 32 29 26 27 33 35 31 26 27 32 35 31 25 21 25 41 53 54 48 42 37 36 38 37 27 15 15 21 20 19 29 40 44 45 44 40 29 13 5 3 351 338 335 329 310 300 302 79 87 88 237 238 246 257 263 260 249 231 219 229 248 260 260 254 247 242 238 240 244 244 240 239 241 242
68 65 60 55 48 43 43 46 48 48 45 39 31 28 28 30 32 32 29 28 28 28 25 24 27 23 9 356 1 21 37 39 36 35 39 44 42 33 21 18 25 30 27 24 26 31 40 48 48 40 28 18 8 342 318 309 311 313 305 293 275 241 204 199 209 221 235 248 257 259 256 251 249 251 252 244 236 242 248 245 244 251 259 263 265 262 255
Height
1359 1359 1360 1357 1357 1360 1360 1362 1366 1367 1369 1372 1376 1378 1377 1380 1393 1397 1387 1385 1390 1384 1375 1373 1371 1368 1366 1364 1363 1363 1367 1370 1371 1372 1375 1378 1382 1386 1389 1393 1396 1399 1402 1405 1407 1411 1413 1417 1420 1423 1426 1428 1430 1433 1436 1439 1443 1446 1449 1454 1457 1461 1463 1464 1465 1467 1470 1473 1476 1479 1481 1483 1486 1488 1490 1492 1494 1497 1499 1500 1502 1505 1507 1509 1511 1512 1514
1356 1356 1357 1356 1356 1359 1358 1357 1358 1361 1365 1367 1369 1371 1371 1374 1380 1381 1379 1384 1383 1376 1371 1367 1363 1363 1362 1361 1361 1361 1363 1366 1369 1372 1376 1378 1381 1385 1388 1391 1394 1396 1399 1401 1404 1407 1410 1414 1417 1420 1423 1425 1427 1429 1432 1435 1438 1442 1446 1449 1452 1456 1458 1459 1462 1464 1467 1470 1473 1475 1477 1479 1481 1484 1487 1489 1492 1494 1496 1498 1500 1503 1506 1507 1508 1509 1510
1355 1351 1353 1355 1356 1358 1359 1357 1354 1355 1359 1362 1365 1368 1369 1372 1376 1374 1375 1382 1379 1368 1362 1360 1359 1360 1361 1362 1363 1363 1364 1366 1367 1371 1376 1379 1382 1386 1388 1391 1393 1395 1397 1399 1401 1404 1406 1409 1412 1415 1418 1420 1423 1425 1428 1431 1434 1438 1442 1445 1447 1450 1453 1455 1459 1461 1464 1467 1469 1471 1473 1475 1478 1481 1484 1486 1489 1491 1493 1496 1498 1500 1503 1504 1505 1506 1507
1360 1350 1350 1354 1353 1357 1362 1359 1354 1353 1356 1360 1362 1363 1364 1368 1373 1374 1376 1381 1377 1365 1358 1358 1358 1358 1361 1363 1363 1364 1367 1369 1370 1371 1374 1377 1380 1383 1386 1389 1390 1392 1394 1396 1398 1400 1403 1405 1408 1411 1413 1416 1419 1421 1423 1426 1429 1434 1438 1440 1442 1445 1448 1452 1455 1458 1461 1463 1465 1468 1470 1472 1475 1478 1481 1484 1487 1489 1491 1493 1495 1497 1499 1500 1501 1502 1504
1361 1352 1351 1352 1357 1369 1368 1354 1348 1352 1354 1355 1356 1356 1356 1357 1362 1371 1375 1373 1367 1359 1357 1359 1359 1358 1359 1361 1361 1363 1366 1369 1371 1371 1372 1375 1377 1379 1382 1385 1387 1388 1389 1392 1395 1397 1399 1402 1404 1405 1408 1411 1414 1416 1418 1422 1426 1431 1434 1435 1438 1441 1444 1447 1450 1453 1456 1459 1461 1464 1466 1469 1472 1475 1479 1481 1484 1486 1488 1490 1492 1493 1495 1497 1498 1499 1501
1361 1355 1351 1357 1370 1379 1363 1341 1339 1347 1349 1352 1355 1355 1353 1351 1352 1357 1360 1358 1356 1355 1357 1359 1359 1357 1355 1355 1356 1359 1362 1365 1368 1368 1369 1372 1374 1376 1378 1380 1382 1384 1385 1388 1392 1394 1397 1399 1400 1402 1404 1406 1409 1411 1415 1419 1422 1426 1429 1431 1433 1436 1439 1442 1445 1448 1452 1454 1457 1460 1462 1466 1470 1472 1476 1478 1480 1483 1485 1487 1489 1491 1492 1494 1495 1497 1498
1356 1353 1356 1376 1387 1372 1348 1335 1335 1337 1340 1345 1350 1351 1349 1349 1350 1350 1351 1352 1352 1352 1353 1354 1355 1354 1353 1352 1353 1356 1359 1361 1363 1365 1366 1368 1371 1373 1374 1376 1377 1380 1382 1385 1388 1391 1394 1397 1398 1400 1401 1403 1405 1409 1412 1415 1418 1421 1424 1427 1429 1431 1434 1437 1440 1443 1447 1449 1453 1456 1459 1463 1466 1469 1472 1474 1477 1479 1482 1484 1486 1488 1489 1491 1492 1493 1493
1352 1357 1367 1381 1377 1355 1340 1337 1334 1334 1340 1345 1350 1356 1354 1350 1350 1351 1352 1352 1350 1350 1351 1351 1352 1353 1352 1352 1353 1354 1357 1359 1360 1363 1365 1366 1368 1370 1371 1373 1374 1376 1379 1382 1384 1387 1390 1393 1395 1396 1397 1399 1402 1405 1408 1411 1413 1416 1419 1422 1424 1426 1429 1432 1435 1438 1441 1445 1449 1452 1455 1459 1462 1465 1468 1471 1474 1476 1479 1481 1483 1484 1486 1487 1489 1490 1490
1348 1360 1368 1366 1360 1356 1351 1344 1336 1336 1342 1346 1351 1362 1361 1352 1349 1351 1352 1353 1352 1351 1351 1350 1350 1351 1352 1355 1355 1354 1356 1357 1359 1361 1363 1364 1367 1368 1370 1372 1373 1375 1378 1379 1381 1383 1385 1388 1390 1392 1393 1395 1398 1401 1404 1407 1410 1412 1415 1417 1419 1421 1424 1427 1430 1433 1437 1440 1444 1447 1451 1454 1457 1460 1464 1467 1471 1473 1475 1477 1479 1481 1483 1484 1486 1488 1489
1347 1357 1368 1368 1371 1371 1358 1345 1337 1333 1337 1340 1343 1356 1363 1355 1348 1348 1351 1354 1354 1353 1353 1351 1349 1351 1358 1364 1360 1355 1355 1356 1356 1358 1360 1362 1365 1366 1368 1370 1370 1372 1374 1376 1379 1380 1381 1383 1386 1387 1389 1391 1393 1397 1400 1402 1405 1408 1410 1412 1414 1416 1419 1422 1425 1428 1432 1435 1439 1442 1446 1450 1453 1456 1460 1464 1467 1469 1471 1473 1476 1478 1480 1482 1484 1485 1486
1353 1359 1369 1373 1373 1366 1351 1343 1338 1334 1337 1337 1340 1359 1370 1359 1348 1347 1349 1354 1356 1355 1355 1354 1352 1358 1369 1371 1362 1355 1356 1355 1353 1352 1355 1357 1360 1363 1365 1367 1367 1368 1370 1372 1374 1375 1376 1378 1381 1383 1385 1387 1388 1391 1393 1397 1400 1402 1404 1406 1409 1411 1414 1417 1420 1424 1427 1430 1434 1437 1442 1446 1449 1453 1457 1461 1464 1467 1469 1471 1473 1475 1477 1478 1480 1481 1482
1357 1362 1368 1365 1361 1355 1346 1340 1339 1338 1337 1338 1354 1379 1379 1359 1349 1348 1348 1352 1356 1355 1356 1357 1359 1367 1374 1372 1364 1357 1356 1355 1353 1351 1351 1353 1355 1357 1360 1363 1364 1365 1367 1369 1370 1371 1372 1374 1375 1377 1380 1382 1383 1384 1387 1391 1394 1396 1398 1400 1403 1406 1409 1412 1416 1419 1422 1425 1429 1433 1438 1442 1446 1451 1455 1458 1461 1464 1466 1468 1470 1472 1473 1475 1477 1478 1480
1359 1364 1369 1364 1357 1351 1343 1340 1339 1338 1340 1350 1371 1383 1371 1354 1351 1351 1348 1351 1354 1355 1357 1360 1364 1369 1370 1367 1363 1359 1356 1356 1355 1354 1354 1353 1353 1354 1356 1358 1360 1362 1364 1365 1366 1367 1368 1370 1371 1371 1373 1375 1377 1377 1380 1384 1387 1389 1392 1395 1398 1401 1404 1407 1411 1414 1418 1421 1425 1430 1435 1439 1444 1449 1452 1455 1457 1460 1462 1464 1466 1468 1470 1472 1474 1476 1478
1361 1364 1370 1371 1364 1349 1340 1341 1341 1341 1352 1367 1372 1365 1356 1354 1354 1351 1350 1352 1353 1354 1357 1360 1364 1367 1366 1364 1362 1359 1358 1358 1357 1357 1357 1355 1354 1353 1353 1353 1355 1357 1359 1360 1360 1361 1363 1365 1366 1367 1368 1369 1370 1371 1373 1376 1380 1384 1387 1389 1392 1395 1398 1402 1406 1410 1414 1418 1422 1427 1432 1437 1441 1445 1448 1451 1454 1456 1458 1461 1463 1465 1467 1469 1471 1473 1475
1369 1371 1377 1383 1377 1356 1341 1345 1348 1350 1360 1366 1360 1353 1354 1356 1354 1352 1353 1353 1353 1355 1357 1358 1361 1363 1363 1363 1362 1360 1360 1359 1358 1358 1357 1355 1354 1353 1352 1353 1353 1353 1354 1354 1354 1355 1357 1359 1361 1362 1363 1363 1364 1365 1366 1370 1374 1379 1383 1385 1387 1390 1394 1398 1402 1406 1410 1414 1419 1425 1429 1433 1437 1440 1444 1447 1450 1453 1456 1458 1460 1463 1464 1466 1468 1470 1471
1385 1386 1382 1379 1374 1359 1346 1347 1353 1355 1356 1355 1353 1353 1356 1355 1354 1354 1354 1354 1355 1356 1356 1358 1360 1360 1361 1363 1362 1361 1360 1359 1358 1357 1355 1354 1354 1353 1352 1353 1353 1353 1353 1353 1352 1353 1354 1356 1357 1357 1357 1357 1358 1359 1362 1366 1371 1374 1378 1381 1383 1386 1390 1394 1399 1404 1408 1413 1417 1421 1425 1429 1433 1437 1441 1444 1447 1450 1453 1455 1458 1460 1462 1464 1465 1467 1468
1391 1389 1380 1372 1369 1365 1357 1349 1349 1353 1354 1354 1354 1355 1355 1356 1356 1355 1354 1356 1357 1356 1357 1358 1360 1361 1363 1364 1363 1362 1360 1358 1357 1356 1354 1352 1352 1351 1351 1353 1354 1355 1354 1354 1354 1354 1354 1357 1357 1355 1353 1353 1353 1355 1359 1364 1366 1369 1372 1376 1379 1382 1387 1392 1397 1403 1407 1412 1416 1419 1422 1426 1430 1434 1438 1441 1444 1448 1451 1453 1455 1457 1459 1461 1462 1463 1465
1386 1381 1377 1375 1375 1377 1369 1355 1348 1350 1354 1355 1355 1354 1355 1357 1356 1355 1357 1359 1358 1359 1359 1360 1361 1364 1366 1366 1365 1363 1360 1358 1357 1356 1354 1353 1351 1350 1351 1351 1353 1356 1356 1355 1354 1354 1357 1362 1361 1357 1353 1351 1350 1352 1356 1360 1362 1364 1368 1371 1375 1380 1385 1391 1396 1401 1405 1410 1415 1418 1422 1426 1429 1433 1436 1439 1442 1445 1448 1451 1453 1455 1456 1458 1459 1461 1462
1389 1385 1380 1378 1381 1384 1375 1360 1351 1350 1352 1356 1356 1356 1357 1358 1357 1358 1359 1359 1360 1362 1362 1362 1365 1367 1367 1367 1366 1364 1361 1360 1358 1356 1355 1354 1352 1352 1352 1352 1353 1356 1356 1355 1354 1356 1361 1365 1364 1361 1357 1352 1350 1350 1353 1356 1359 1361 1364 1368 1373 1378 1383 1388 1394 1399 1404 1409 1414 1418 1422 1425 1429 1432 1435 1438 1441 1443 1446 1448 1451 1453 1455 1456 1457 1459 1459
1389 1387 1384 1382 1385 1385 1374 1362 1357 1355 1354 1356 1358 1359 1359 1359 1359 1360 1361 1361 1362 1363 1364 1366 1367 1366 1367 1368 1366 1365 1364 1362 1360 1359 1357 1355 1353 1352 1352 1352 1354 1356 1356 1355 1354 1355 1357 1359 1361 1364 1361 1354 1349 1348 1349 1352 1356 1358 1361 1366 1370 1376 1382 1387 1393 1398 1404 1410 1413 1417 1421 1424 1427 1431 1434 1437 1440 1442 1444 1447 1449 1451 1453 1454 1456 1457 1457
1387 1385 1385 1384 1386 1384 1375 1368 1368 1366 1360 1357 1358 1360 1360 1360 1361 1363 1364 1364 1365 1365 1367 1368 1366 1366 1367 1368 1367 1366 1365 1363 1362 1361 1359 1357 1355 1353 1352 1353 1354 1356 1357 1357 1356 1354 1353 1352 1354 1360 1364 1360 1351 1346 1348 1350 1353 1357 1363 1367 1373 1382 1389 1393 1396 1401 1406 1411 1414 1416 1420 1423 1426 1430 1434 1436 1439 1441 1444 1446 1448 1450 1451 1453 1455 1456 1456
1391 1389 1389 1388 1388 1388 1382 1376 1376 1376 1370 1362 1359 1359 1360 1362 1365 1366 1367 1368 1368 1367 1368 1368 1367 1367 1369 1369 1369 1368 1366 1365 1364 1363 1362 1361 1359 1356 1354 1353 1355 1357 1359 1358 1357 1355 1353 1352 1352 1358 1367 1368 1358 1352 1355 1358 1359 1365 1372 1377 1382 1390 1396 1399 1401 1404 1408 1412 1414 1417 1419 1422 1425 1429 1432 1436 1439 1441 1443 1445 1447 1449 1451 1453 1455 1456 1456
1394 1390 1389 1389 1389 1389 1386 1381 1379 1380 1376 1370 1364 1363 1364 1366 1367 1368 1368 1369 1370 1369 1370 1370 1370 1370 1371 1371 1370 1369 1368 1367 1365 1363 1363 1364 1364 1361 1356 1353 1356 1360 1360 1360 1360 1358 1356 1358 1358 1361 1367 1369 1364 1361 1366 1371 1373 1376 1381 1385 1390 1395 1398 1401 1403 1405 1408 1412 1414 1417 1420 1422 1425 1428 1431 1435 1438 1441 1443 1445 1447 1449 1450 1453 1455 1456 1456
1390 1388 1388 1389 1389 1389 1389 1385 1380 1379 1378 1375 1371 1369 1369 1368 1369 1370 1370 1371 1372 1372 1372 1373 1372 1373 1373 1373 1372 1371 1370 1369 1367 1365 1364 1363 1363 1363 1362 1359 1360 1361 1360 1362 1363 1362 1361 1365 1366 1366 1368 1370 1370 1369 1371 1376 1381 1382 1383 1389 1396 1398 1400 1402 1404 1406 1409 1412 1414 1417 1420 1422 1425 1428 1430 1433 1436 1439 1442 1444 1446 1448 1449 1452 1454 1456 1457
1387 1385 1386 1388 1389 1390 1391 1386 1381 1380 1381 1379 1376 1375 1374 1372 1372 1372 1372 1374 1375 1375 1375 1375 1375 1375 1374 1374 1374 1374 1373 1373 1372 1370 1367 1365 1364 1366 1368 1367 1366 1364 1365 1367 1367 1365 1366 1368 1370 1370 1371 1371 1371 1372 1373 1377 1382 1384 1386 1391 1397 1399 1401 1403 1405 1407 1410 1412 1415 1417 1419 1422 1425 1428 1430 1432 1433 1436 1439 1442 1445 1447 1449 1451 1453 1455 1456
1385 1384 1385 1387 1388 1390 1389 1385 1381 1381 1383 1382 1380 1379 1377 1375 1374 1374 1375 1376 1376 1376 1377 1378 1378 1377 1376 1376 1376 1377 1377 1377 1377 1374 1371 1370 1369 1370 1372 1373 1372 1371 1372 1373 1371 1370 1371 1371 1371 1373 1374 1374 1374 1376 1378 1380 1384 1387 1390 1393 1397 1400 1402 1404 1406 1408 1410 1413 1415 1417 1420 1423 1425 1428 1430 1432 1433 1435 1437 1440 1443 1446 1449 1451 1453 1454 1455
1385 1384 1383 1384 1386 1388 1387 1384 1381 1381 1383 1384 1383 1381 1380 1378 1376 1376 1376 1377 1377 1378 1379 1379 1380 1380 1380 1379 1379 1380 1380 1380 1379 1378 1377 1376 1375 1375 1376 1378 1378 1378 1379 1380 1379 1379 1379 1379 1378 1379 1379 1379 1380 1382 1384 1386 1388 1391 1394 1397 1400 1402 1404 1405 1406 1408 1411 1413 1416 1418 1420 1423 1426 1428 1431 1433 1434 1436 1437 1439 1442 1445 1448 1450 1452 1453 1455
1386 1384 1382 1382 1384 1386 1385 1384 1382 1382 1384 1386 1385 1383 1383 1381 1379 1378 1379 1379 1379 1379 1380 1380 1381 1381 1381 1381 1382 1382 1382 1382 1382 1381 1381 1381 1381 1381 1382 1383 1383 1383 1384 1385 1386 1386 1386 1386 1385 1385 1384 1385 1386 1387 1389 1390 1392 1395 1398 1400 1402 1404 1405 1406 1408 1410 1412 1414 1416 1418 1421 1424 1426 1429 1432 1434 1436 1438 1440 1441 1443 1445 1447 1449 1450 1452 1454
1385 1383 1383 1383 1383 1383 1385 1386 1387 1387 1388 1388 1387 1386 1386 1384 1382 1381 1382 1382 1382 1382 1381 1381 1381 1381 1382 1383 1383 1384 1384 1385 1386 1385 1385 1386 1386 1386 1386 1388 1388 1386 1385 1386 1387 1387 1388 1388 1388 1388 1389 1390 1390 1391 1392 1393 1395 1397 1400 1402 1403 1404 1405 1407 1409 1410 1413 1415 1417 1419 1421 1423 1426 1429 1432 1435 1438 1440 1441 1443 1445 1446 1447 1448 1450 1452 1454
1385 1385 1386 1386 1385 1386 1388 1390 1391 1390 1390 1389 1389 1388 1388 1386 1384 1384 1385 1384 1384 1384 1383 1383 1382 1381 1382 1383 1384 1385 1386 1387 1388 1389 1389 1390 1390 1390 1390 1391 1390 1388 1387 1388 1389 1389 1390 1390 1391 1392 1392 1392 1393 1394 1394 1395 1397 1399 1401 1402 1404 1405 1406 1407 1409 1411 1413 1415 1417 1419 1421 1422 1425 1427 1430 1434 1438 1441 1442 1444 1445 1446 1447 1448 1450 1452 1453
1388 1387 1387 1386 1387 1389 1390 1391 1392 1392 1391 1391 1391 1390 1389 1388 1387 1387 1387 1387 1386 1385 1385 1385 1384 1383 1383 1384 1385 1386 1387 1388 1388 1389 1391 1392 1392 1392 1392 1392 1391 1391 1391 1392 1393 1392 1392 1392 1393 1394 1393 1393 1394 1395 1396 1397 1398 1400 1401 1403 1404 1405 1406 1407 1409 1411 1413 1415 1418 1420 1421 1423 1425 1427 1430 1434 1438 1440 1442 1443 1445 1446 1447 1448 1450 1451 1453
1391 1389 1387 1386 1388 1390 1390 1391 1392 1393 1393 1392 1392 1391 1390 1390 1389 1388 1388 1388 1388 1387 1387 1387 1385 1385 1385 1386 1386 1387 1388 1388 1388 1388 1389 1391 1391 1391 1391 1392 1391 1392 1393 1393 1393 1393 1392 1392 1392 1393 1393 1393 1394 1396 1397 1398 1398 1399 1401 1402 1403 1405 1406 1408 1410 1412 1414 1416 1418 1419 1421 1423 1424 1427 1430 1435 1438 1440 1441 1442 1444 1446 1447 1448 1449 1450 1452
1392 1390 1388 1388 1390 1390 1391 1391 1392 1393 1393 1393 1393 1392 1392 1391 1390 1390 1390 1389 1389 1388 1388 1387 1386 1386 1387 1388 1388 1389 1390 1390 1389 1388 1389 1390 1390 1390 1391 1391 1390 1391 1392 1393 1392 1392 1391 1391 1391 1391 1392 1393 1394 1395 1397 1398 1398 1399 1400 1402 1403 1405 1406 1408 1410 1412 1413 1415 1418 1420 1422 1423 1424 1427 1431 1434 1437 1439 1440 1442 1444 1445 1446 1447 1448 1450 1451
1392 1391 1391 1391 1392 1392 1393 1393 1394 1393 1393 1393 1393 1393 1392 1392 1391 1391 1391 1390 1390 1389 1389 1388 1387 1388 1388 1389 1389 1391 1392 1392 1391 1390 1390 1390 1391 1391 1391 1392 1391 1391 1392 1392 1393 1392 1392 1391 1391 1391 1392 1393 1394 1396 1397 1397 1398 1399 1400 1402 1403 1405 1407 1408 1410 1412 1414 1416 1418 1421 1424 1425 1426 1429 1431 1433 1436 1438 1440 1441 1443 1444 1445 1446 1447 1449 1450
1394 1394 1393 1393 1394 1395 1395 1396 1396 1396 1395 1395 1395 1394 1394 1393 1393 1393 1392 1392 1391 1391 1390 1389 1389 1390 1389 1389 1390 1391 1391 1391 1390 1390 1391 1392 1392 1393 1393 1394 1394 1393 1393 1394 1395 1395 1394 1394 1393 1393 1394 1395 1397 1398 1399 1399 1399 1400 1401 1402 1404 1405 1407 1409 1411 1414 1416 1417 1419 1421 1424 1426 1428 1430 1432 1433 1435 1437 1439 1441 1442 1443 1444 1445 1446 1447 1449
1397 1397 1396 1396 1397 1397 1398 1397 1398 1398 1398 1398 1397 1396 1396 1395 1394 1394 1394 1393 1393 1392 1392 1392 1392 1392 1391 1391 1391 1392 1392 1392 1392 1393 1394 1395 1395 1396 1396 1397 1397 1396 1395 1396 1397 1398 1398 1397 1396 1397 1398 1398 1399 1400 1401 1401 1402 1403 1404 1404 1404 1406 1408 1411 1413 1416 1418 1419 1420 1421 1423 1426 1428 1430 1432 1433 1434 1436 1438 1439 1441 1442 1443 1444 1445 1446 1447
1399 1399 1399 1399 1399 1399 1399 1399 1400 1400 1400 1400 1399 1398 1397 1397 1396 1396 1395 1395 1394 1394 1394 1394 1395 1394 1393 1393 1393 1394 1394 1395 1395 1396 1397 1398 1399 1399 1399 1399 1399 1399 1398 1399 1400 1401 1401 1400 1400 1401 1402 1402 1402 1402 1402 1402 1403 1405 1406 1406 1407 1408 1410 1413 1414 1416 1418 1419 1420 1421 1424 1426 1428 1430 1431 1432 1434 1435 1437 1438 1439 1441 1442 1443 1444 1445 1446
1401 1401 1401 1401 1401 1402 1402 1402 1402 1402 1402 1401 1401 1400 1400 1399 1398 1398 1397 1397 1397 1397 1397 1397 1397 1396 1395 1395 1395 1396 1397 1398 1398 1399 1399 1400 1401 1401 1401 1401 1401 1402 1401 1402 1402 1403 1403 1403 1404 1405 1405 1405 1404 1404 1404 1403 1404 1405 1407 1408 1409 1410 1412 1413 1415 1416 1418 1419 1420 1421 1423 1425 1427 1429 1430 1432 1433 1435 1436 1437 1438 1440 1441 1442 1443 1445 1445
1404 1404 1404 1404 1404 1404 1404 1404 1404 1404 1403 1403 1403 1402 1402 1401 1401 1400 1400 1399 1399 1399 1399 1399 1399 1399 1398 1397 1397 1398 1399 1400 1400 1400 1401 1402 1402 1402 1403 1403 1404 1404 1404 1405 1405 1405 1405 1405 1405 1406 1406 1406 1406 1405 1405 1405 1405 1406 1407 1408 1410 1411 1412 1413 1414 1416 1417 1418 1420 1421 1423 1425 1427 1428 1430 1431 1433 1435 1436 1437 1438 1439 1440 1441 1442 1443 1444
1406 1406 1406 1406 1406 1406 1406 1406 1406 1406 1406 1405 1405 1405 1404 1404 1404 1403 1403 1402 1402 1402 1402 1402 1401 1401 1400 1399 1400 1401 1402 1402 1402 1402 1403 1403 1404 1404 1405 1405 1406 1406 1406 1407 1406 1406 1406 1406 1406 1406 1407 1407 1407 1407 1407 1407 1407 1407 1408 1409 1410 1412 1413 1414 1415 1417 1418 1418 1419 1421 1423 1425 1426 1428 1429 1432 1433 1435 1436 1437 1438 1438 1438 1439 1440 1441 1442
1408 1409 1409 1409 1409 1408 1408 1408 1408 1408 1408 1408 1408 1408 1407 1407 1407 1406 1406 1405 1405 1405 1405 1405 1404 1403 1403 1403 1403 1404 1405 1405 1405 1405 1406 1406 1407 1407 1407 1408 1408 1408 1408 1408 1408 1408 1407 1407 1407 1407 1407 1408 1408 1408 1408 1408 1408 1409 1409 1410 1411 1413 1414 1415 1416 1417 1417 1418 1419 1421 1423 1425 1427 1428 1430 1432 1433 1434 1435 1436 1437 1437 1438 1438 1438 1439 1441
1411 1411 1411 1411 1411 1411 1411 1411 1411 1411 1411 1411 1411 1411 1410 1410 1409 1409 1408 1408 1408 1408 1408 1407 1406 1406 1406 1406 1407 1408 1408 1409 1409 1409 1410 1410 1410 1410 1410 1411 1411 1411 1411 1410 1409 1409 1409 1409 1409 1409 1409 1409 1409 1409 1409 1410 1410 1410 1411 1411 1412 1412 1413 1415 1415 1416 1417 1418 1419 1422 1424 1426 1427 1428 1430 1431 1432 1433 1435 1436 1436 1437 1438 1437 1437 1438 1439
1414 1414 1413 1414 1414 1414 1414 1414 1414 1414 1414 1414 1414 1414 1413 1412 1412 1412 1411 1411 1411 1410 1410 1410 1409 1409 1409 1410 1410 1411 1412 1412 1412 1413 1413 1413 1413 1413 1413 1414 1413 1413 1413 1412 1412 1411 1411 1410 1410 1411 1411 1411 1411 1411 1412 1412 1412 1412 1413 1414 1414 1414 1415 1416 1418 1418 1418 1418 1420 1422 1424 1425 1427 1428 1430 1431 1432 1433 1434 1435 1436 1436 1437 1437 1437 1437 1438
1417 1417 1416 1417 1417 1417 1417 1417 1416 1416 1416 1416 1416 1416 1416 1415 1415 1414 1414 1413 1413 1412 1412 1412 1412 1412 1413 1413 1414 1414 1415 1415 1415 1416 1416 1415 1416 1416 1416 1417 1416 1416 1415 1415 1414 1413 1413 1412 1412 1412 1413 1413 1413 1413 1413 1414 1414 1415 1415 1415 1415 1416 1417 1418 1419 1419 1419 1420 1421 1422 1423 1425 1426 1428 1429 1430 1431 1432 1432 1433 1434 1435 1435 1436 1436 1437 1438
1420 1420 1420 1420 1420 1420 1420 1419 1419 1419 1419 1419 1419 1418 1418 1417 1417 1416 1416 1415 1415 1415 1414 1415 1415 1415 1416 1416 1416 1417 1417 1417 1417 1418 1418 1418 1418 1419 1419 1419 1418 1418 1417 1416 1416 1415 1415 1414 1414 1414 1414 1415 1415 1415 1415 1415 1416 1416 1416 1417 1417 1417 1418 1419 1419 1420 1420 1420 1421 1422 1423 1424 1426 1427 1428 1429 1430 1430 1431 1432 1432 1433 1434 1435 1436 1437 1438
1423 1423 1423 1423 1423 1423 1422 1422 1422 1421 1421 1420 1420 1420 1419 1419 1419 1418 1417 1417 1417 1417 1417 1417 1417 1417 1418 1419 1419 1419 1419 1419 1419 1420 1420 1421 1421 1421 1421 1421 1420 1419 1419 1418 1418 1417 1417 1416 1416 1416 1416 1416 1416 1416 1416 1417 1417 1418 1418 1418 1418 1419 1419 1419 1420 1420 1421 1421 1422 1423 1423 1424 1426 1427 1428 1428 1429 1429 1430 1430 1431 1432 1433 1434 1434 1435 1437
1425 1425 1425 1425 1425 1425 1424 1424 1423 1423 1423 1422 1422 1421 1421 1421 1420 1420 1419 1418 1419 1419 1419 1419 1419 1420 1420 1420 1420 1420 1420 1420 1421 1421 1422 1423 1423 1423 1423 1422 1421 1421 1420 1420 1419 1419 1418 1418 1418 1417 1417 1417 1417 1417 1417 1417 1418 1418 1418 1419 1419 1419 1419 1420 1420 1421 1421 1422 1423 1423 1424 1425 1426 1426 1427 1428 1428 1428 1429 1430 1430 1431 1432 1432 1433 1434 1435
1428 1428 1428 1428 1427 1427 1427 1426 1426 1425 1425 1425 1424 1423 1423 1423 1422 1422 1421 1421 1421 1422 1422 1422 1422 1422 1422 1422 1422 1422 1422 1422 1422 1423 1423 1424 1424 1424 1424 1423 1423 1422 1421 1421 1420 1420 1420 1420 1419 1419 1418 1418 1418 1418 1418 1418 1418 1418 1419 1419 1420 1420 1420 1421 1421 1421 1422 1423 1424 1424 1425 1425 1426 1426 1426 1427 1427 1428 1428 1429 1430 1430 1430 1431 1432 1432 1433
1431 1431 1431 1431 1430 1429 1429 1429 1428 1428 1428 1427 1426 1426 1426 1425 1424 1424 1424 1423 1424 1424 1424 1424 1424 1424 1424 1424 1424 1424 1424 1424 1424 1424 1425 1425 1424 1424 1424 1424 1423 1422 1422 1421 1421 1421 1421 1421 1420 1420 1419 1419 1419 1419 1419 1419 1419 1419 1419 1419 1420 1420 1420 1421 1422 1422 1422 1423 1424 1425 1425 1425 1425 1425 1426 1426 1427 1427 1427 1428 1428 1429 1429 1430 1430 1431 1431
1433 1433 1433 1433 1432 1432 1431 1431 1430 1430 1430 1429 1429 1428 1428 1427 1427 1426 1426 1426 1426 1426 1426 1426 1426 1425 1425 1425 1425 1425 1425 1425 1425 1426 1426 1426 1425 1425 1425 1424 1423 1423 1422 1422 1421 1422 1422 1421 1420 1420 1420 1419 1419 1419 1419 1419 1419 1420 1420 1420 1420 1420 1421 1421 1422 1422 1422 1422 1423 1423 1424 1424 1424 1424 1425 1425 1425 1425 1426 1426 1427 1428 1429 1429 1430 1430 1431
1436 1436 1436 1435 1434 1434 1433 1432 1432 1432 1431 1431 1431 1430 1429 1429 1429 1428 1428 1428 1427 1427 1427 1427 1427 1426 1426 1427 1427 1426 1426 1426 1426 1426 1426 1426 1426 1425 1425 1424 1424 1423 1423 1423 1422 1422 1422 1422 1421 1421 1421 1420 1420 1420 1420 1420 1419 1419 1419 1419 1419 1420 1420 1420 1421 1421 1422 1422 1422 1422 1422 1422 1423 1423 1423 1424 1424 1424 1425 1426 1426 1427 1428 1429 1430 1430 1430
1438 1437 1437 1436 1436 1435 1435 1434 1434 1433 1432 1432 1432 1432 1431 1430 1430 1430 1429 1429 1429 1429 1429 1429 1428 1427 1427 1427 1427 1427 1427 1426 1426 1426 1427 1427 1426 1425 1425 1425 1425 1424 1424 1423 1423 1424 1424 1423 1422 1422 1422 1421 1421 1420 1420 1420 1419 1419 1418 1418 1418 1419 1419 1419 1419 1419 1419 1420 1420 1420 1420 1421 1422 1422 1423 1423 1423 1424 1424 1425 1425 1426 1427 1427 1428 1428 1428